Location: Drouwen
(52.9559°N, 6.7974°E)
Time: 08:07:19
(UTC+00:00)

Meteor 1-10 Rocket - Pass Details

Date: 15 May 2026
Orbit: 834 x 909 km, 81.3° (Epoch: 5 June)

Event Time Altitude Azimuth Distance (km) Brightness Sun altitude
Exits shadow 23:11:30 29° 188° (S) 1,595 5.1 -17.9°
Maximum altitude 23:14:41 86° 102° (ESE) 918 4.3 -17.9°
Drops below altitude 10° 23:20:40 10° 14° (NNE) 2,607 7.9 -18.0°
Sets 23:23:09 0° 14° (NNE) 3,551 8.9 -18.0°
